{"data":{"norad_id":65223,"epoch":"2026-05-25T00:50:28.690656Z","epoch_age_seconds":75293,"freshness":"FRESH","line1":"1 65223U 25176AB  26145.03505429  .00022083  00000+0  66254-3 0  9995","line2":"2 65223  53.1598 157.7976 0001315  89.2763 270.8390 15.34412095 44818","mean_motion":15.34412095,"eccentricity":0.0001315,"inclination_deg":53.1598,"raan_deg":157.7976,"arg_perigee_deg":89.2763,"mean_anomaly_deg":270.839,"bstar":0.00066254,"rev_number":4481,"period_min":93.847018326586,"perigee_km":461.76772579,"apogee_km":463.56685731868,"semimajor_km":6840.8042915543,"source":"CELESTRAK","updated_at":"2026-05-25T13:38:20.723122Z"}}